Rochester, NY

7:50 PM EST on November 18, 2019 (GMT -0500)
Greater Rochester International

Weather History for KROC - October, 2019

Change the Weather History Date:

Saturday, October 19, 2019

  Actual Average Record
Temperature  
Mean Temperature 46 °F 49 °F  
Max Temperature 57 °F 58 °F 81 °F (1945)
Min Temperature 33 °F 41 °F 22 °F (1972)
Degree Days  
Heating Degree Days 20 16  
Month to date heating degree days 228 241  
Since 1 July heating degree days 292 422  
Cooling Degree Days 0 0  
Month to date cooling degree days 13 0  
Year to date cooling degree days 621 534  
Moisture  
Dew Point 37 °F    
Average Humidity 76    
Maximum Humidity 96    
Minimum Humidity 43    
Precipitation  
Precipitation 0.00 in 0.08 in 2.85 in (1996)
Month to date precipitation 2.45 1.69  
Year to date precipitation 26.31 27.67  
Snow  
Snow 0.00 in 0.00 in 0.10 in (1981)
Month to date snowfall 0.0 0.0  
Since 1 July snowfall 0.0 0.0  
Since 1 September snowfall 0.0 0.0  
Snow Depth 0.00 in    
Sea Level Pressure  
Sea Level Pressure 30.06 in    
Wind  
Wind Speed 4 mph ()    
Max Wind Speed 12 mph    
Max Gust Speed 14 mph    
Visibility 10.0 miles    
Events      
T = Trace of Precipitation, MM = Missing Value Source: Averaged Metar Reports

Daily Weather History Graph

Daily Weather History Graph

Search for Another Location

Airport or City:

Astronomy

Oct. 19, 2019 Rise Set
Actual Time 7:28 AM EDT 6:21 PM EDT
Civil Twilight 7:00 AM EDT 6:50 PM EDT
Nautical Twilight 6:26 AM EDT 7:23 PM EDT
Astronomical Twilight 5:54 AM EDT 7:56 PM EDT
Moon 10:22 PM EDT 1:05 PM EDT
Length of Visible Light 11h 50m
Length of Day
10h 52m
Waning Gibbous, 70% of the Moon is Illuminated
Oct 19
Waning Gibbous
Oct 21
Last Quarter
Oct 27
New
Nov 4
First Quarter
Nov 12
Full

Hourly Weather History & Observations

Time (EDT) Temp. Windchill Dew Point Humidity Pressure Visibility Wind Dir Wind Speed Gust Speed Precip Events Conditions
12:54 AM 37.0 °F 33.3 °F 34.0 °F 89% 30.09 in 10.0 mi WSW 4.6 mph - N/A   Clear
1:54 AM 36.0 °F 33.3 °F 33.1 °F 89% 30.09 in 10.0 mi WSW 3.5 mph - N/A   Clear
2:54 AM 35.1 °F 31.0 °F 33.1 °F 92% 30.09 in 10.0 mi WSW 4.6 mph - N/A   Clear
3:54 AM 34.0 °F 31.0 °F 32.0 °F 92% 30.08 in 10.0 mi WSW 3.5 mph - N/A   Clear
4:54 AM 34.0 °F 31.0 °F 30.9 °F 89% 30.08 in 10.0 mi WSW 3.5 mph - N/A   Clear
5:54 AM 34.0 °F 28.8 °F 32.0 °F 92% 30.09 in 10.0 mi WSW 5.8 mph - N/A   Clear
6:54 AM 34.0 °F 29.8 °F 32.0 °F 92% 30.11 in 10.0 mi SW 4.6 mph - N/A   Clear
7:54 AM 34.0 °F 29.8 °F 30.9 °F 89% 30.12 in 10.0 mi WSW 4.6 mph - N/A   Clear
8:54 AM 37.9 °F 33.5 °F 35.1 °F 89% 30.12 in 10.0 mi SW 5.8 mph - N/A   Partly Cloudy
9:54 AM 43.0 °F 40.3 °F 37.0 °F 80% 30.12 in 10.0 mi WSW 4.6 mph - N/A   Partly Cloudy
10:54 AM 48.0 °F - 39.0 °F 71% 30.12 in 10.0 mi Calm Calm - N/A   Mostly Cloudy
11:54 AM 53.1 °F - 39.0 °F 59% 30.11 in 10.0 mi Calm Calm - N/A   Scattered Clouds
12:54 PM 54.0 °F - 37.9 °F 55% 30.09 in 10.0 mi Variable 3.5 mph - N/A   Scattered Clouds
1:54 PM 55.0 °F - 37.9 °F 53% 30.06 in 10.0 mi Calm Calm - N/A   Scattered Clouds
2:54 PM 57.0 °F - 37.9 °F 49% 30.03 in 10.0 mi East 3.5 mph - N/A   Scattered Clouds
3:54 PM 57.9 °F - 36.0 °F 44% 30.03 in 10.0 mi ESE 4.6 mph - N/A   Scattered Clouds
4:54 PM 54.0 °F - 42.1 °F 64% 30.01 in 10.0 mi NE 11.5 mph - N/A   Mostly Cloudy
5:54 PM 51.1 °F - 42.1 °F 71% 30.01 in 10.0 mi ENE 9.2 mph - N/A   Mostly Cloudy
6:54 PM 48.0 °F - 41.0 °F 77% 30.00 in 10.0 mi East 6.9 mph - N/A   Mostly Cloudy
7:54 PM 46.9 °F - 41.0 °F 80% 30.00 in 10.0 mi ENE 6.9 mph - N/A   Scattered Clouds
8:54 PM 46.0 °F 41.9 °F 39.9 °F 79% 29.99 in 10.0 mi East 8.1 mph - N/A   Scattered Clouds
9:54 PM 45.0 °F 41.8 °F 39.0 °F 80% 29.98 in 10.0 mi ESE 5.8 mph - N/A   Scattered Clouds
10:54 PM 45.0 °F 42.6 °F 39.0 °F 80% 29.96 in 10.0 mi ESE 4.6 mph - N/A   Scattered Clouds
11:54 PM 46.0 °F 44.8 °F 37.9 °F 73% 29.95 in 10.0 mi SSE 3.5 mph - N/A   Scattered Clouds